If you wish to contribute or participate in the discussions about articles you are invited to join SKYbrary as a registered user

 Actions

Alpnach Air Base

From SKYbrary Wiki

LSMA
Airport
ICAO: LSMA
Summary
Name Alpnach Air Base
Region Europe
Territory Switzerland CH.gif
Location Alpnach, Obwalden
Serving Alpnach
Elevation 445.008 m
1,460 ft
1,460 ft445.008 m
Type medium airport
Coordinates 46° 56' 38.00" N, 8° 17' 3.00" E
Runways
Designator Length Width Surface ROPS
1/19 1500 m4,921.26 ft
40 m131.234 ft
ASP /


METAR
Observation LSMA 142120Z AUTO VRB02KT 9000NDV -SHRA FEW016 BKN025 OVC029 M01/M03 Q1021 RMK
Station ALPNACH
Date/Time 14 December 2018 21:20:00
Wind direction °
Wind speed 02 kts
Lowest cloud amount few clouds
Temperature
Dew point
Humidity 86%
QNH 1021 hPa
Weather condition n/a

Maps

Terrain

Loading map...

Airport Layout

Loading map...


Accidents & Serious Incidents at or in vicinity of LSMA

None on SKYbrary